KUIPER-00247

导读 | 豆包AI

KUIPER-00247是美国亚马逊“柯伊伯计划”卫星互联网项目的低轨卫星,于2025年12月15日发射入轨。该项目计划部署超3000颗低轨卫星,旨在为全球网络覆盖不足地区提供高速宽带服务。KUIPER系列卫星采用Ka频段相控阵天线,支持激光星间链路,能实现动态容量分配,提供低延迟高速互联,将助力亚马逊推进空天地一体化网络建设。

基本信息
目录编号:
67152
目录名称:
KUIPER-00247
国际标识:
2025-301V
轨道中心:
EARTH
卫星名称:
KUIPER-00247
卫星全名:
KUIPER-00247
卫星状态:
在轨 (已飞行78 天)
发射日期:
2025-12-15 UTC
国别 :
美国 (US)
星等 :
--
轨道信息
数据来源 国际轨道数据
星历时间: 2026-03-02T20:29:25+0800
15小时前
查看轨道信息
半长轴: 6834.486km
偏心率: 0.0014106
轨道倾角: 51.862°
近地点辐角 33.345°
升交点赤经 100.611°
平近点角 326.842°
近地点: 446.708km
远地点: 465.99km
周期: 93.717分钟
每日圈数: 15.365404
详细信息
使用方式:
暂无
2D轨道图
3D轨道图
轨道高度分析图
轨道倾角分析图
轨道综合分析图
查看轨道综合分析图